Weather History for Springfield, MO

Change the Weather History Date:

Friday, January 31, 2014

  Actual Average Record
Temperature  
Mean Temperature 35 °F 34 °F  
Max Temperature 39 °F 45 °F 73 °F (1989)
Min Temperature 30 °F 23 °F -7 °F (1899)
Degree Days  
Heating Degree Days 30 31  
Month to date heating degree days 1106 1005  
Since 1 July heating degree days 3029 2813  
Cooling Degree Days 0 0  
Month to date cooling degree days 0 0  
Year to date cooling degree days 0 0  
Moisture  
Dew Point 32 °F    
Average Humidity 78    
Maximum Humidity 92    
Minimum Humidity 64    
Precipitation  
Precipitation 0.03 in 0.08 in 0.94 in (1923)
Month to date precipitation 1.29 2.47  
Year to date precipitation 1.29 2.47  
Snow  
Snow 0.00 in - - ()
Month to date snowfall 9.5  
Since 1 July snowfall 23.0  
Snow Depth 0.00 in    
Sea Level Pressure  
Sea Level Pressure 29.91 in    
Wind  
Wind Speed 8 mph (East)    
Max Wind Speed 18 mph    
Max Gust Speed 22 mph    
Visibility 5 miles    
Events Rain    
T = Trace of Precipitation, MM = Missing Value Source: NWS Daily Summary

Daily Weather History Graph

Daily Weather History Graph

Search for Another Location

Airport:

Trip Planner

Search our weather history database for the weather conditions in past years. The results will help you decide how hot, cold, wet, or windy it might be!

Date:

Astronomy

Jan. 31, 2014 Rise Set
Actual Time 7:17 AM CST 5:37 PM CST
Civil Twilight 6:49 AM CST 6:04 PM CST
Nautical Twilight 6:18 AM CST 6:35 PM CST
Astronomical Twilight 5:47 AM CST 7:06 PM CST
Moon 7:29 AM CST (1/31) 6:59 PM CST (1/31)
Length of Visible Light 11h 14m
Length of Day
10h 19m
New Moon, 1% of the Moon is Illuminated
Jan 31
New Moon
Feb 6
First Quarter
Feb 14
Full
Feb 22
Last Quarter
Mar 1
New

Hourly Weather History & Observations

Time (CST) Temp. Windchill Dew Point Humidity Pressure Visibility Wind Dir Wind Speed Gust Speed Precip Events Conditions
12:52 AM 30.9 °F 26.2 °F 23.0 °F 72% 29.93 in 10.0 mi ESE 4.6 mph - N/A   Clear
1:52 AM 32.0 °F 26.4 °F 24.1 °F 73% 29.95 in 10.0 mi SE 5.8 mph - N/A   Clear
2:52 AM 33.1 °F 25.5 °F 25.0 °F 72% 29.94 in 10.0 mi SE 9.2 mph - N/A   Clear
3:52 AM 30.9 °F 25.2 °F 24.1 °F 76% 29.94 in 10.0 mi NE 5.8 mph - N/A   Partly Cloudy
4:52 AM 34.0 °F 28.8 °F 25.0 °F 70% 29.91 in 10.0 mi ENE 5.8 mph - N/A   Overcast
5:52 AM 34.0 °F 27.2 °F 25.0 °F 70% 29.93 in 10.0 mi ENE 8.1 mph - N/A   Overcast
6:52 AM 35.1 °F 30.1 °F 25.0 °F 67% 29.96 in 10.0 mi ENE 5.8 mph - N/A   Overcast
7:52 AM 35.1 °F 29.3 °F 26.1 °F 70% 29.97 in 10.0 mi ENE 6.9 mph - N/A   Overcast
8:15 AM 36.0 °F 29.6 °F 26.1 °F 67% 29.93 in 10.0 mi East 8.1 mph - N/A   Overcast
8:52 AM 37.0 °F 31.6 °F 27.0 °F 67% 29.98 in 10.0 mi ENE 6.9 mph - N/A   Overcast
9:52 AM 39.0 °F 34.0 °F 28.9 °F 67% 29.96 in 10.0 mi East 6.9 mph - N/A   Overcast
10:02 AM 39.0 °F 34.8 °F 30.0 °F 70% 29.94 in 10.0 mi East 5.8 mph - N/A   Overcast
10:47 AM 37.4 °F 31.4 °F 33.8 °F 87% 29.95 in 2.0 mi ENE 8.1 mph - 0.00 in   Overcast
10:52 AM 36.0 °F 30.3 °F 33.1 °F 89% 29.97 in 1.8 mi ENE 6.9 mph - 0.00 in   Overcast
11:01 AM 36.0 °F 30.3 °F 33.1 °F 89% 29.94 in 2.0 mi ENE 6.9 mph - 0.00 in Rain Light Rain
11:11 AM 36.0 °F 29.6 °F 34.0 °F 93% 29.93 in 1.8 mi ENE 8.1 mph - 0.00 in Rain Light Rain
11:30 AM 35.1 °F 27.9 °F 33.1 °F 92% 29.93 in 2.5 mi NE 9.2 mph - 0.01 in Rain Light Rain
11:42 AM 35.1 °F 27.9 °F 33.1 °F 92% 29.92 in 2.0 mi ENE 9.2 mph - 0.01 in Rain Light Rain
11:52 AM 35.1 °F 26.9 °F 34.0 °F 96% 29.94 in 2.0 mi East 11.5 mph - 0.01 in Rain Light Rain
12:30 PM 35.1 °F 27.4 °F 33.1 °F 92% 29.90 in 1.8 mi ENE 10.4 mph - 0.01 in Rain Light Rain
12:52 PM 35.1 °F 28.6 °F 34.0 °F 96% 29.93 in 1.8 mi ENE 8.1 mph - 0.01 in Rain Light Rain
1:03 PM 35.1 °F 29.3 °F 34.0 °F 96% 29.89 in 2.0 mi ENE 6.9 mph - 0.00 in Rain Light Rain
1:37 PM 37.0 °F 32.4 °F 36.0 °F 96% 29.88 in 3.0 mi East 5.8 mph - 0.01 in Rain Light Rain
1:52 PM 37.0 °F 30.4 °F 35.1 °F 93% 29.90 in 5.0 mi ESE 9.2 mph - 0.01 in Rain Light Rain
2:52 PM 37.0 °F 29.8 °F 35.1 °F 93% 29.90 in 3.0 mi East 10.4 mph - 0.00 in Rain Light Rain
3:42 PM 37.0 °F 31.0 °F 35.1 °F 93% 29.87 in 2.5 mi East 8.1 mph - 0.00 in Rain Light Rain
3:49 PM 37.4 °F 30.8 °F 35.6 °F 93% 29.86 in 4.0 mi East 9.2 mph - 0.00 in Rain Light Rain
3:52 PM 37.0 °F 30.4 °F 35.1 °F 93% 29.88 in 4.0 mi East 9.2 mph - 0.00 in Rain Light Rain
4:52 PM 36.0 °F 30.3 °F 34.0 °F 93% 29.90 in 6.0 mi ESE 6.9 mph - 0.00 in   Overcast
5:52 PM 36.0 °F 31.1 °F 34.0 °F 93% 29.90 in 4.0 mi East 5.8 mph - 0.00 in   Overcast
6:52 PM 36.0 °F 30.3 °F 33.1 °F 89% 29.90 in 6.0 mi East 6.9 mph - N/A   Overcast
7:52 PM 36.0 °F 30.3 °F 34.0 °F 93% 29.89 in 6.0 mi ESE 6.9 mph - N/A   Overcast
8:52 PM 36.0 °F 28.5 °F 34.0 °F 93% 29.88 in 5.0 mi ESE 10.4 mph - N/A   Overcast
9:45 PM 37.0 °F 31.6 °F 35.1 °F 93% 29.86 in 4.0 mi SE 6.9 mph - N/A   Overcast
9:52 PM 37.0 °F 30.4 °F 35.1 °F 93% 29.87 in 4.0 mi SE 9.2 mph - N/A   Overcast
10:36 PM 37.0 °F 29.3 °F 36.0 °F 96% 29.83 in 2.5 mi SE 11.5 mph - N/A   Overcast
10:52 PM 37.9 °F 29.6 °F 36.0 °F 93% 29.84 in 3.0 mi SE 13.8 mph - N/A   Overcast
11:52 PM 39.0 °F 30.6 °F 37.0 °F 93% 29.82 in 3.0 mi SSE 15.0 mph - N/A   Overcast